Wind_Speed
25 25 26 27 27 27 28 29 30 30 29 28 29 29 29 30 30 30 31 32 33 34 35 36 37 38 39 40 41 41 42 43 43 43 44 44 45 46 46 47 48 49 49 49
25 25 26 27 27 27 28 29 29 30 30 28 28 29 30 30 29 30 30 31 32 33 33 34 35 36 37 39 40 42 42 42 43 43 43 44 45 46 47 47 48 47 48 49
25 25 26 26 26 26 27 28 28 29 28 29 28 28 29 29 29 29 29 30 31 32 32 33 34 35 36 38 39 40 41 42 42 43 43 43 44 46 47 47 47 47 47 48
24 25 25 25 25 26 26 26 27 27 27 28 28 28 28 28 29 29 29 30 30 31 32 33 33 34 35 36 38 39 40 40 41 42 42 42 43 44 45 46 47 47 46 47
25 25 25 23 24 25 25 25 25 26 26 26 27 27 28 29 29 29 29 29 29 30 31 31 32 33 33 34 36 38 39 40 40 40 41 42 43 44 44 44 45 46 46 46
26 27 25 23 24 24 25 25 25 25 25 26 27 28 29 29 30 29 29 29 29 29 30 30 31 32 32 33 35 36 37 37 38 39 39 40 41 42 43 43 44 46 47 46
26 27 25 24 25 25 25 25 25 25 26 26 27 27 28 28 29 30 30 30 30 30 30 30 31 32 31 32 33 35 36 37 38 39 40 40 41 41 42 42 44 45 46 47
25 26 25 24 25 25 26 26 26 26 26 27 27 27 28 28 29 30 30 30 30 30 30 30 30 31 31 31 32 33 34 36 37 38 39 40 40 40 41 43 44 44 45 46
24 25 24 24 25 25 25 26 26 26 26 26 27 28 28 28 29 29 30 30 29 29 30 30 30 30 31 32 32 32 33 34 35 36 37 38 39 40 41 42 42 43 43 44
24 23 22 23 24 24 24 25 25 26 27 27 27 27 27 28 28 28 29 29 29 28 28 29 30 29 30 31 32 32 32 33 34 35 36 36 37 38 39 40 40 41 41 42
23 22 22 22 23 23 24 24 25 26 26 27 27 27 27 26 26 26 27 28 28 27 28 28 29 30 31 31 32 32 32 32 33 34 35 35 36 37 38 38 39 40 41 41
24 23 22 22 23 24 24 25 26 27 27 28 28 28 27 26 26 26 26 27 27 27 27 27 27 28 29 29 30 31 31 31 32 32 33 35 35 36 37 38 38 39 40 41
25 24 24 23 24 24 25 25 26 26 27 27 27 27 27 27 26 25 25 26 26 26 26 27 27 26 26 27 28 28 29 30 31 31 32 33 34 35 36 36 37 38 39 39
25 25 24 24 25 25 26 26 26 27 26 26 26 26 26 26 26 26 25 25 26 26 27 27 26 26 26 27 27 27 28 28 29 30 30 31 32 33 34 35 36 37 38 38
25 25 25 25 25 26 26 26 26 26 26 25 25 25 25 25 25 26 26 26 26 25 26 26 26 26 26 27 27 27 27 28 28 29 30 30 31 32 33 33 34 35 36 37
25 26 26 26 26 26 27 27 26 26 26 26 26 26 26 25 25 25 25 26 25 25 25 25 26 26 26 26 26 26 26 27 27 28 29 30 31 32 33 33 33 34 34 35
26 26 27 27 26 26 26 27 26 26 27 27 27 26 26 26 26 25 25 25 25 25 25 26 26 26 26 26 26 26 26 26 27 28 29 29 30 31 32 33 34 34 34 35
26 27 27 27 27 27 27 27 27 27 27 27 27 26 26 25 25 25 25 25 25 25 26 26 26 26 26 27 27 27 27 28 28 30 30 30 31 31 32 32 33 34 34 35
27 28 29 29 28 28 29 29 28 28 27 27 27 26 26 25 25 25 25 25 26 26 26 27 27 27 27 27 27 27 27 27 28 29 30 30 31 31 31 31 32 33 33 34
28 29 30 30 30 30 30 30 29 28 28 27 27 26 26 26 26 26 26 26 26 26 27 28 28 28 28 28 28 27 27 28 28 28 28 29 29 30 30 30 30 31 31 32
29 29 29 30 30 30 29 29 28 28 28 27 27 27 27 27 27 27 27 27 27 27 27 27 28 28 28 27 27 27 27 27 27 27 27 28 28 29 29 29 29 29 30 31
29 29 29 29 29 29 28 28 28 28 27 27 27 27 28 27 27 27 27 27 27 27 27 27 27 27 27 26 26 26 26 26 26 26 26 26 27 27 28 28 28 29 29 30
29 28 28 28 27 27 27 27 27 27 26 27 27 27 27 27 27 27 27 27 27 27 27 27 27 26 26 25 25 24 25 25 25 25 25 26 26 27 27 28 28 28 29 30
28 28 27 26 26 25 25 25 26 25 25 26 26 26 26 26 26 26 27 27 27 26 26 26 25 25 24 24 24 24 24 24 24 25 25 25 26 26 26 27 27 28 29 30
27 27 26 25 25 24 24 24 24 25 25 25 25 25 25 25 25 25 25 25 25 24 24 24 24 24 24 24 24 24 24 25 25 25 25 25 25 26 26 27 27 28 29 30
27 26 25 24 24 24 24 23 23 23 23 23 24 24 24 24 24 24 24 24 24 24 24 24 24 24 24 24 25 25 25 25 25 25 26 26 26 27 27 28 28 29 30 30
26 25 24 24 24 24 23 23 22 22 22 21 22 22 22 22 23 23 24 24 24 24 24 24 25 25 25 25 26 26 26 26 26 27 27 27 28 28 29 29 29 30 30 30
Wind_Direction
279 277 275 274 272 270 269 270 271 270 272 274 273 272 271 268 266 265 265 265 264 264 264 262 261 259 257 256 255 252 252 252 251 249 249 249 249 249 249 250 250 250 250 251
279 278 275 274 273 272 271 270 270 270 268 271 272 272 270 270 268 267 267 267 266 266 266 265 263 261 258 257 254 253 252 251 250 249 249 249 249 249 250 251 250 250 252 252
282 281 276 274 276 275 272 271 271 270 269 269 271 271 271 271 269 268 268 267 268 267 267 267 266 263 260 258 255 253 252 251 250 249 250 250 250 251 252 251 251 252 252 253
285 284 282 282 278 275 275 273 271 270 270 272 272 271 271 271 270 269 270 270 270 270 269 268 267 266 263 259 256 254 252 252 250 249 250 250 252 252 252 252 252 252 253 254
286 287 287 284 280 277 277 275 272 271 271 271 271 271 271 270 271 271 272 272 272 271 270 268 268 267 265 260 258 255 253 252 251 250 251 252 253 252 252 252 252 253 254 255
285 288 290 289 283 279 279 277 275 273 272 272 273 274 272 272 273 273 273 273 273 272 271 270 269 268 266 262 260 257 254 252 252 251 252 252 253 253 253 253 253 253 254 255
285 287 289 289 286 282 280 281 278 275 273 275 276 277 275 274 275 275 275 274 273 272 272 271 270 268 267 264 261 258 256 254 253 252 253 253 254 254 254 254 254 253 255 255
288 288 290 289 286 283 281 280 279 276 275 275 276 277 277 276 275 275 276 275 274 273 272 272 271 269 267 265 264 261 258 256 255 254 254 255 254 254 254 255 255 256 257 257
289 290 289 287 286 286 284 282 280 277 275 276 277 277 278 277 274 274 275 275 274 274 273 272 271 270 268 266 265 264 261 257 256 256 255 255 255 256 256 256 257 258 258 258
289 289 289 288 287 287 287 284 282 280 278 278 279 280 280 279 276 274 274 274 274 275 274 272 271 271 269 266 265 265 264 260 258 257 256 255 256 257 256 257 257 258 258 259
290 290 288 288 288 287 286 286 284 282 281 280 280 281 281 279 278 277 274 273 273 275 275 274 272 271 271 269 267 265 264 262 260 258 257 257 257 257 256 256 257 258 259 259
290 288 286 286 286 288 287 285 285 284 282 282 280 280 280 279 278 278 276 275 274 275 275 274 273 272 272 270 268 266 264 262 261 260 259 258 258 258 258 258 259 260 260 260
286 285 286 286 288 289 288 287 286 286 284 282 280 280 278 278 278 278 278 278 277 275 274 274 274 273 273 272 270 267 265 263 262 262 261 261 261 260 260 260 261 261 262 262
285 284 284 286 287 288 288 288 287 287 286 283 281 280 278 277 277 278 279 278 278 276 275 274 274 274 274 274 273 270 267 265 263 263 264 263 264 264 264 264 264 264 263 263
286 285 284 285 285 286 287 288 288 287 286 284 282 280 278 277 278 278 278 278 277 276 276 275 275 276 276 276 275 272 270 267 266 264 264 265 265 265 266 266 265 266 266 265
285 285 286 286 286 286 287 288 288 286 285 285 284 283 280 278 278 279 279 278 276 275 275 276 277 277 278 276 273 271 270 269 268 268 266 265 266 266 266 266 267 267 267 268
286 285 286 286 285 285 286 287 288 286 285 285 285 284 281 279 278 278 278 277 275 273 274 275 276 277 276 274 273 272 270 270 269 269 269 269 268 268 268 268 268 269 269 270
288 287 287 286 285 285 285 286 287 287 287 286 284 283 281 280 278 277 278 277 275 275 275 275 276 278 277 275 274 273 272 271 271 271 271 272 271 271 270 270 270 270 270 271
290 288 287 286 285 285 285 285 287 287 286 284 284 282 281 280 278 277 276 276 276 277 277 276 277 278 278 277 277 275 273 273 273 273 273 273 272 272 272 272 272 272 272 272
292 290 288 287 285 285 286 287 287 287 285 284 283 282 280 279 278 277 277 277 277 276 277 277 277 278 278 278 278 277 275 275 275 275 275 274 274 274 273 273 273 273 273 273
294 292 290 289 287 285 285 286 286 284 284 283 281 279 279 279 279 278 277 276 276 277 277 277 277 278 278 278 278 278 278 277 277 277 276 275 275 275 275 274 274 274 274 274
296 294 292 291 290 288 286 285 285 284 283 283 282 280 279 279 279 278 277 277 276 277 278 278 277 278 278 278 279 279 278 277 277 277 276 276 276 276 276 276 276 276 276 276
297 296 295 293 291 289 288 287 286 285 284 284 283 281 280 280 280 279 279 279 278 277 276 277 277 277 277 278 278 279 278 277 277 277 277 278 278 278 278 278 278 278 278 279
298 298 297 295 293 292 290 290 289 287 286 285 285 283 281 280 280 280 279 280 279 277 275 275 276 276 277 277 277 278 278 278 278 278 279 279 280 281 280 280 280 280 280 281
299 299 298 296 295 294 293 292 292 291 288 287 286 284 282 281 280 279 278 277 277 276 274 274 274 274 275 276 276 277 278 279 279 280 280 281 282 283 283 283 283 283 284 284
298 298 297 294 293 293 294 294 294 294 291 289 287 286 284 282 280 279 278 277 276 276 275 274 274 274 275 276 277 278 279 279 280 280 282 283 284 285 286 286 286 286 286 287
297 297 296 293 292 293 294 295 295 296 295 293 291 289 287 285 283 282 281 279 277 276 275 274 274 275 275 276 277 278 279 280 281 281 282 283 284 285 287 287 288 288 288 288
Height
5556 5555 5554 5553 5552 5551 5550 5549 5548 5548 5548 5549 5547 5546 5546 5545 5545 5545 5545 5546 5546 5546 5547 5547 5547 5548 5548 5549 5550 5552 5553 5555 5558 5560 5563 5565 5568 5571 5574 5577 5580 5583 5586 5588
5548 5547 5545 5544 5544 5543 5542 5541 5539 5539 5539 5539 5538 5537 5537 5536 5536 5536 5536 5536 5536 5536 5536 5536 5536 5536 5537 5537 5538 5539 5541 5543 5545 5548 5551 5553 5556 5558 5561 5564 5567 5569 5572 5575
5541 5539 5537 5536 5537 5535 5534 5533 5532 5530 5531 5530 5529 5529 5528 5527 5527 5526 5526 5526 5526 5526 5525 5525 5525 5525 5525 5525 5526 5527 5529 5531 5533 5536 5538 5541 5543 5546 5548 5551 5554 5556 5559 5562
5532 5532 5529 5532 5529 5526 5525 5524 5523 5522 5522 5521 5521 5520 5519 5518 5517 5517 5517 5516 5516 5516 5515 5515 5514 5514 5513 5513 5514 5515 5517 5519 5521 5524 5526 5529 5531 5533 5536 5538 5541 5543 5546 5549
5525 5522 5522 5523 5521 5518 5517 5517 5515 5514 5514 5513 5512 5511 5510 5509 5508 5508 5507 5507 5506 5505 5505 5504 5504 5503 5503 5503 5503 5504 5506 5508 5510 5512 5515 5517 5519 5521 5523 5526 5528 5531 5533 5535
5517 5515 5514 5516 5513 5510 5510 5509 5508 5506 5505 5504 5503 5503 5503 5501 5500 5499 5498 5498 5497 5496 5495 5495 5494 5494 5493 5493 5493 5494 5495 5497 5499 5501 5503 5505 5507 5509 5511 5514 5516 5518 5520 5522
5510 5507 5507 5508 5504 5502 5502 5502 5500 5498 5497 5496 5495 5494 5493 5492 5491 5490 5489 5488 5488 5487 5486 5486 5485 5484 5484 5484 5484 5484 5485 5486 5488 5490 5492 5493 5495 5497 5499 5501 5503 5505 5507 5509
5503 5501 5503 5499 5496 5495 5494 5492 5491 5490 5489 5487 5486 5485 5484 5483 5482 5481 5480 5479 5478 5478 5477 5476 5476 5475 5475 5474 5474 5474 5475 5475 5477 5478 5480 5482 5483 5485 5487 5489 5491 5492 5494 5495
5497 5496 5494 5491 5489 5487 5485 5484 5482 5481 5480 5479 5478 5476 5475 5474 5473 5472 5471 5470 5469 5468 5468 5467 5466 5466 5465 5465 5464 5464 5465 5465 5466 5467 5469 5470 5472 5473 5475 5476 5478 5480 5481 5482
5489 5487 5485 5483 5481 5479 5478 5476 5474 5473 5472 5471 5470 5468 5466 5465 5464 5462 5461 5461 5460 5459 5459 5458 5457 5456 5456 5455 5455 5455 5455 5455 5456 5457 5458 5460 5461 5462 5463 5464 5466 5467 5468 5470
5481 5480 5478 5476 5474 5472 5470 5468 5467 5465 5464 5462 5461 5459 5458 5456 5455 5453 5453 5452 5451 5450 5450 5449 5448 5447 5447 5446 5446 5446 5446 5445 5446 5447 5448 5449 5450 5450 5452 5453 5454 5455 5456 5457
5475 5473 5470 5469 5467 5465 5463 5461 5459 5457 5456 5454 5452 5451 5449 5448 5446 5445 5444 5443 5442 5442 5441 5440 5439 5438 5437 5436 5436 5436 5436 5436 5436 5437 5437 5438 5439 5439 5440 5441 5442 5442 5443 5444
5467 5464 5463 5461 5459 5457 5455 5453 5451 5449 5447 5445 5444 5442 5441 5439 5438 5437 5435 5434 5433 5433 5432 5432 5431 5430 5429 5428 5427 5426 5426 5426 5426 5427 5427 5428 5428 5429 5429 5430 5430 5431 5431 5432
5459 5457 5455 5454 5452 5449 5447 5445 5443 5441 5439 5437 5435 5434 5432 5431 5430 5429 5427 5426 5425 5425 5424 5423 5422 5422 5420 5419 5418 5417 5417 5417 5417 5417 5417 5418 5418 5418 5419 5419 5419 5419 5420 5420
5451 5449 5447 5445 5444 5441 5439 5437 5435 5433 5431 5429 5428 5426 5425 5423 5422 5421 5420 5418 5417 5416 5416 5415 5414 5413 5412 5411 5409 5408 5408 5407 5407 5408 5408 5408 5408 5408 5408 5408 5408 5408 5408 5408
5443 5441 5439 5437 5435 5434 5432 5430 5428 5426 5424 5422 5420 5418 5417 5415 5414 5413 5412 5410 5409 5408 5408 5407 5406 5405 5403 5402 5401 5400 5399 5399 5399 5399 5398 5398 5398 5398 5398 5398 5397 5397 5397 5397
5435 5433 5431 5429 5427 5425 5423 5422 5420 5418 5415 5414 5412 5410 5408 5407 5406 5405 5403 5402 5401 5400 5399 5398 5397 5396 5395 5393 5392 5391 5391 5390 5390 5390 5389 5389 5388 5388 5388 5387 5387 5387 5386 5386
5426 5424 5423 5421 5419 5417 5415 5413 5411 5409 5407 5405 5403 5401 5400 5398 5397 5396 5395 5394 5393 5392 5391 5390 5388 5387 5386 5385 5384 5383 5382 5382 5381 5380 5380 5379 5378 5378 5377 5377 5376 5376 5375 5374
5417 5416 5414 5412 5410 5408 5406 5404 5402 5400 5398 5396 5394 5393 5391 5390 5389 5387 5386 5385 5384 5383 5382 5380 5379 5378 5377 5376 5375 5374 5373 5373 5372 5371 5370 5369 5368 5368 5367 5366 5366 5365 5364 5363
5409 5407 5405 5402 5401 5399 5397 5395 5393 5391 5389 5387 5385 5384 5382 5381 5380 5378 5377 5376 5375 5374 5372 5371 5370 5369 5368 5367 5366 5365 5364 5363 5362 5361 5360 5359 5359 5358 5357 5356 5355 5354 5354 5353
5400 5398 5395 5393 5391 5389 5387 5385 5383 5381 5380 5378 5376 5375 5373 5372 5371 5369 5368 5367 5366 5364 5363 5362 5361 5360 5359 5358 5357 5356 5355 5354 5353 5352 5351 5350 5349 5348 5347 5346 5345 5344 5343 5342
5391 5389 5386 5384 5382 5380 5378 5376 5374 5372 5370 5368 5367 5365 5364 5362 5361 5360 5358 5357 5356 5355 5354 5352 5351 5350 5349 5349 5348 5347 5346 5345 5344 5342 5341 5340 5339 5338 5337 5336 5335 5334 5333 5332
5383 5380 5378 5375 5373 5371 5369 5367 5365 5363 5361 5359 5358 5356 5354 5353 5351 5350 5349 5348 5346 5345 5344 5343 5342 5341 5341 5340 5339 5338 5337 5336 5335 5333 5332 5331 5330 5329 5328 5327 5325 5324 5323 5322
5375 5372 5369 5367 5364 5362 5360 5358 5356 5354 5352 5350 5349 5347 5345 5344 5342 5341 5339 5338 5337 5336 5335 5334 5334 5333 5332 5331 5331 5330 5328 5327 5326 5325 5324 5323 5321 5320 5319 5317 5316 5314 5313 5311
5366 5363 5361 5358 5356 5354 5352 5350 5348 5346 5344 5342 5340 5338 5336 5335 5334 5332 5331 5330 5329 5328 5327 5326 5325 5325 5324 5323 5322 5321 5320 5319 5318 5317 5315 5314 5312 5311 5309 5308 5306 5304 5302 5300
5358 5355 5353 5351 5349 5346 5344 5342 5340 5338 5335 5333 5332 5330 5328 5326 5325 5324 5322 5321 5320 5320 5319 5318 5317 5317 5316 5315 5314 5313 5312 5310 5309 5308 5306 5305 5303 5302 5300 5298 5296 5294 5291 5289
5349 5347 5345 5343 5340 5338 5336 5334 5332 5330 5328 5326 5324 5322 5320 5318 5317 5316 5314 5313 5312 5311 5311 5310 5309 5308 5307 5306 5305 5304 5302 5301 5300 5298 5297 5295 5294 5292 5290 5288 5286 5283 5281 5278